• In Hungary
  • List of Countries
  • For 7 days
  • Water Temperature
  • Satellite Maps
  • Weather Map
  • News
  • Weather Widgets
  • user-avatar
    Login

    Hourly Weather Pueblo Libre

    Today, 13 December, Wednesday

    Time Temperature Precipitation Wind Pressure Humidity
    00:00 +5°C° 0 mm 1 mps 492 mmHg 82%
    01:00 +5°C° 0 mm 1 mps 492 mmHg 84%
    02:00 +5°C° 0 mm 1 mps 492 mmHg 84%
    03:00 +5°C° 0 mm 1 mps 492 mmHg 84%
    04:00 +5°C° 0 mm 1 mps 491 mmHg 84%
    05:00 +5°C° 0 mm 1 mps 492 mmHg 80%
    06:00 +5°C° 0 mm 0 mps 493 mmHg 75%
    07:00 +6°C° 0 mm 0 mps 494 mmHg 70%
    08:00 +9°C° 0 mm 1 mps 496 mmHg 62%
    09:00 +11°C° 0 mm 1 mps 497 mmHg 54%
    10:00 +13°C° 0 mm 2 mps 498 mmHg 46%
    11:00 +14°C° 0 mm 2 mps 498 mmHg 43%
    12:00 +14°C° 0 mm 3 mps 498 mmHg 41%
    13:00 +16°C° 0 mm 3 mps 498 mmHg 38%
    14:00 +16°C° 0 mm 3 mps 498 mmHg 39%
    15:00 +14°C° 0 mm 3 mps 497 mmHg 40%
    16:00 +14°C° 0 mm 3 mps 497 mmHg 40%
    17:00 +13°C° 0 mm 2 mps 495 mmHg 47%
    18:00 +9°C° 0 mm 2 mps 494 mmHg 54%
    19:00 +8°C° 0 mm 1 mps 493 mmHg 61%
    20:00 +8°C° 0 mm 1 mps 493 mmHg 65%
    21:00 +7°C° 0 mm 1 mps 493 mmHg 69%
    22:00 +6°C° 0 mm 1 mps 493 mmHg 72%
    23:00 +6°C° 0.1 mm 1 mps 493 mmHg 75%

    Tomorrow, 14 December, Thursday

    Time Temperature Precipitation Wind Pressure Humidity
    00:00 +5°C° 0.1 mm 1 mps 492 mmHg 77%
    01:00 +5°C° 0.1 mm 1 mps 492 mmHg 79%
    02:00 +5°C° 0 mm 1 mps 492 mmHg 80%
    03:00 +4°C° 0 mm 1 mps 491 mmHg 81%
    04:00 +4°C° 0 mm 1 mps 491 mmHg 83%
    05:00 +4°C° 0 mm 0 mps 492 mmHg 77%
    06:00 +5°C° 0 mm 0 mps 493 mmHg 71%
    07:00 +7°C° 0 mm 0 mps 494 mmHg 66%
    08:00 +10°C° 0 mm 1 mps 496 mmHg 58%
    09:00 +12°C° 0 mm 1 mps 497 mmHg 50%
    10:00 +14°C° 0 mm 2 mps 498 mmHg 43%
    11:00 +15°C° 0 mm 2 mps 498 mmHg 40%
    12:00 +16°C° 0 mm 2 mps 498 mmHg 38%
    13:00 +17°C° 0 mm 3 mps 499 mmHg 35%
    14:00 +16°C° 0 mm 3 mps 498 mmHg 37%
    15:00 +16°C° 0 mm 3 mps 497 mmHg 40%
    16:00 +14°C° 0 mm 3 mps 497 mmHg 42%
    17:00 +13°C° 0 mm 2 mps 496 mmHg 50%
    18:00 +10°C° 0 mm 2 mps 495 mmHg 59%
    19:00 +9°C° 0 mm 1 mps 494 mmHg 68%
    20:00 +8°C° 0.1 mm 1 mps 494 mmHg 71%
    21:00 +8°C° 0.1 mm 1 mps 494 mmHg 74%
    22:00 +6°C° 0.1 mm 0 mps 494 mmHg 77%
    23:00 +6°C° 0.1 mm 0 mps 493 mmHg 78%

    Day after tomorrow, 15 December, Friday

    Time Temperature Precipitation Wind Pressure Humidity
    00:00 +5°C° 0.1 mm 0 mps 493 mmHg 79%
    01:00 +5°C° 0.1 mm 0 mps 492 mmHg 80%
    02:00 +5°C° 0 mm 0 mps 492 mmHg 81%
    03:00 +5°C° 0 mm 1 mps 492 mmHg 81%
    04:00 +5°C° 0 mm 1 mps 491 mmHg 82%
    05:00 +5°C° 0 mm 0 mps 492 mmHg 77%
    06:00 +6°C° 0 mm 0 mps 493 mmHg 73%
    07:00 +7°C° 0 mm 0 mps 494 mmHg 69%
    08:00 +9°C° 0 mm 1 mps 495 mmHg 63%
    09:00 +11°C° 0 mm 1 mps 496 mmHg 58%
    10:00 +12°C° 0 mm 2 mps 497 mmHg 53%
    11:00 +13°C° 0.1 mm 2 mps 497 mmHg 52%
    12:00 +14°C° 0.1 mm 2 mps 497 mmHg 51%
    13:00 +14°C° 0.1 mm 3 mps 497 mmHg 50%
    14:00 +14°C° 0.3 mm 2 mps 497 mmHg 52%
    15:00 +14°C° 0.3 mm 2 mps 496 mmHg 55%
    16:00 +13°C° 0.3 mm 2 mps 495 mmHg 58%
    17:00 +12°C° 0.5 mm 2 mps 495 mmHg 64%
    18:00 +10°C° 0.5 mm 1 mps 494 mmHg 70%
    19:00 +9°C° 0.5 mm 1 mps 493 mmHg 77%
    20:00 +8°C° 0.5 mm 1 mps 493 mmHg 79%
    21:00 +7°C° 0.5 mm 0 mps 494 mmHg 81%
    22:00 +7°C° 0.5 mm 0 mps 494 mmHg 84%
    23:00 +6°C° 0.6 mm 0 mps 493 mmHg 84%

    16 December, Saturday

    Time Temperature Precipitation Wind Pressure Humidity
    00:00 +6°C° 0.6 mm 0 mps 493 mmHg 85%
    01:00 +6°C° 0.6 mm 0 mps 493 mmHg 86%
    02:00 +6°C° 0.8 mm 0 mps 492 mmHg 87%
    03:00 +6°C° 0.8 mm 1 mps 492 mmHg 87%
    04:00 +6°C° 0.8 mm 1 mps 492 mmHg 88%
    05:00 +6°C° 1.1 mm 1 mps 492 mmHg 87%
    06:00 +6°C° 1.1 mm 1 mps 492 mmHg 86%
    07:00 +7°C° 1.1 mm 1 mps 493 mmHg 86%
    08:00 +7°C° 1.7 mm 1 mps 493 mmHg 83%
    09:00 +8°C° 1.7 mm 1 mps 494 mmHg 80%
    10:00 +9°C° 1.7 mm 1 mps 495 mmHg 77%
    11:00 +9°C° 1.2 mm 1 mps 495 mmHg 74%
    12:00 +10°C° 1.2 mm 1 mps 495 mmHg 71%
    13:00 +11°C° 1.2 mm 1 mps 495 mmHg 68%
    14:00 +10°C° 0.8 mm 2 mps 494 mmHg 69%
    15:00 +10°C° 0.8 mm 2 mps 494 mmHg 69%
    16:00 +9°C° 0.8 mm 2 mps 493 mmHg 69%
    17:00 +9°C° 0.6 mm 1 mps 493 mmHg 74%
    18:00 +9°C° 0.6 mm 1 mps 493 mmHg 78%
    19:00 +8°C° 0.6 mm 1 mps 492 mmHg 82%
    20:00 +6°C° 0.4 mm 0 mps 492 mmHg 83%
    21:00 +6°C° 0.4 mm 0 mps 493 mmHg 84%
    22:00 +6°C° 0.4 mm 0 mps 493 mmHg 84%
    23:00 +6°C° 0.6 mm 0 mps 493 mmHg 85%

    17 December, Sunday

    Time Temperature Precipitation Wind Pressure Humidity
    00:00 +6°C° 0.6 mm 0 mps 492 mmHg 85%
    01:00 +5°C° 0.6 mm 0 mps 492 mmHg 85%
    02:00 +5°C° 1.1 mm 0 mps 492 mmHg 85%
    03:00 +6°C° 1.1 mm 1 mps 492 mmHg 85%
    04:00 +6°C° 1.1 mm 1 mps 491 mmHg 85%
    05:00 +6°C° 1.4 mm 1 mps 492 mmHg 84%
    06:00 +5°C° 1.4 mm 0 mps 492 mmHg 83%
    07:00 +6°C° 1.4 mm 0 mps 493 mmHg 82%
    08:00 +7°C° 1.7 mm 1 mps 493 mmHg 78%
    09:00 +8°C° 1.7 mm 1 mps 494 mmHg 75%
    10:00 +9°C° 1.7 mm 1 mps 495 mmHg 72%
    11:00 +9°C° 1.4 mm 1 mps 495 mmHg 70%
    12:00 +10°C° 1.4 mm 1 mps 494 mmHg 69%
    13:00 +11°C° 1.4 mm 1 mps 494 mmHg 68%
    14:00 +10°C° 0.8 mm 1 mps 494 mmHg 68%
    15:00 +10°C° 0.8 mm 1 mps 494 mmHg 68%
    16:00 +10°C° 0.8 mm 1 mps 493 mmHg 69%
    17:00 +9°C° 0.4 mm 1 mps 493 mmHg 73%
    18:00 +8°C° 0.4 mm 1 mps 493 mmHg 77%
    19:00 +7°C° 0.4 mm 1 mps 493 mmHg 81%
    20:00 +7°C° 0.5 mm 1 mps 493 mmHg 82%
    21:00 +7°C° 0.5 mm 1 mps 493 mmHg 83%
    22:00 +6°C° 0.5 mm 0 mps 493 mmHg 85%
    23:00 +5°C° 0.4 mm 0 mps 493 mmHg 85%

    18 December, Monday

    Time Temperature Precipitation Wind Pressure Humidity
    00:00 +5°C° 0.4 mm 0 mps 492 mmHg 86%
    01:00 +5°C° 0.4 mm 0 mps 492 mmHg 86%
    02:00 +5°C° 0.3 mm 0 mps 492 mmHg 87%
    03:00 +5°C° 0.3 mm 0 mps 491 mmHg 87%
    04:00 +4°C° 0.3 mm 0 mps 491 mmHg 88%
    05:00 +5°C° 0.3 mm 0 mps 492 mmHg 85%
    06:00 +5°C° 0.3 mm 0 mps 492 mmHg 82%
    07:00 +6°C° 0.3 mm 0 mps 493 mmHg 79%
    08:00 +8°C° 0.4 mm 1 mps 494 mmHg 74%
    09:00 +9°C° 0.4 mm 1 mps 495 mmHg 70%
    10:00 +10°C° 0.4 mm 2 mps 495 mmHg 66%
    11:00 +10°C° 0.6 mm 2 mps 495 mmHg 65%
    12:00 +12°C° 0.6 mm 2 mps 496 mmHg 64%
    13:00 +13°C° 0.6 mm 2 mps 496 mmHg 62%
    14:00 +13°C° 0.4 mm 2 mps 495 mmHg 62%
    15:00 +13°C° 0.4 mm 2 mps 495 mmHg 62%
    16:00 +13°C° 0.4 mm 2 mps 495 mmHg 62%
    17:00 +12°C° 0.3 mm 2 mps 494 mmHg 68%
    18:00 +10°C° 0.3 mm 1 mps 494 mmHg 73%
    19:00 +9°C° 0.3 mm 1 mps 494 mmHg 78%
    20:00 +9°C° 0.7 mm 1 mps 494 mmHg 81%
    21:00 +8°C° 0.7 mm 1 mps 494 mmHg 83%
    22:00 +8°C° 0.7 mm 1 mps 494 mmHg 85%
    23:00 +6°C° 1.2 mm 0 mps 493 mmHg 86%
    Show more